Weather History for Hatteras, NC

Change the Weather History Date:

Sunday, September 1, 2013

  Actual Average Record
Temperature  
Mean Temperature 83 °F 77 °F  
Max Temperature 88 °F 83 °F 92 °F (1932)
Min Temperature 78 °F 72 °F 55 °F (1976)
Degree Days  
Heating Degree Days 0 0  
Month to date heating degree days 0 0  
Since 1 July heating degree days 0 0  
Cooling Degree Days 18 12  
Month to date cooling degree days 18 12  
Year to date cooling degree days 1532 1318  
Growing Degree Days 33 (Base 50)    
Moisture  
Dew Point 76 °F    
Average Humidity 81    
Maximum Humidity 91    
Minimum Humidity 70    
Precipitation  
Precipitation T in 0.24 in 2.75 in (2006)
Month to date precipitation T 0.24  
Year to date precipitation 31.20 37.43  
Snow  
Snow 0.00 in - - ()
Month to date snowfall 0.0  
Since 1 July snowfall 0.0  
Snow Depth 0.00 in    
Sea Level Pressure  
Sea Level Pressure 29.91 in    
Wind  
Wind Speed 9 mph (WSW)    
Max Wind Speed 17 mph    
Max Gust Speed 24 mph    
Visibility 10 miles    
Events      
T = Trace of Precipitation, MM = Missing Value Source: NWS Daily Summary

Daily Weather History Graph

Daily Weather History Graph

Search for Another Location

Airport:

Trip Planner

Search our weather history database for the weather conditions in past years. The results will help you decide how hot, cold, wet, or windy it might be!

Date:

Astronomy

Sep. 01, 2013 Rise Set
Actual Time 6:35 AM EDT 7:29 PM EDT
Civil Twilight 6:09 AM EDT 7:54 PM EDT
Nautical Twilight 5:38 AM EDT 8:25 PM EDT
Astronomical Twilight 5:06 AM EDT 8:57 PM EDT
Moon 3:00 AM EDT (9/1) 5:00 PM EDT (9/1)
Length of Visible Light 13h 45m
Length of Day
12h 53m
Waning Crescent, 14% of the Moon is Illuminated
Sep 1
Waning Crescent
Sep 5
New
Sep 12
First Quarter
Sep 19
Full
Sep 26
Last Quarter

Hourly Weather History & Observations

Time (EDT) Temp. Heat Index Dew Point Humidity Pressure Visibility Wind Dir Wind Speed Gust Speed Precip Events Conditions
12:51 AM 81.0 °F 87.9 °F 77.0 °F 88% 29.92 in 9.0 mi WSW 4.6 mph - N/A   Scattered Clouds
1:51 AM 80.1 °F 85.4 °F 75.9 °F 87% 29.91 in 9.0 mi West 3.5 mph - N/A   Clear
2:51 AM 79.0 °F - 75.9 °F 90% 29.90 in 8.0 mi WSW 4.6 mph - N/A   Clear
3:51 AM 79.0 °F - 75.0 °F 88% 29.89 in 10.0 mi West 8.1 mph - N/A   Clear
4:51 AM 78.1 °F - 75.0 °F 90% 29.88 in 10.0 mi WSW 5.8 mph - N/A   Clear
5:51 AM 79.0 °F - 75.9 °F 90% 29.91 in 10.0 mi West 9.2 mph - N/A   Scattered Clouds
6:03 AM 78.8 °F - 75.2 °F 89% 29.91 in 10.0 mi West 9.2 mph - N/A   Mostly Cloudy
6:32 AM 78.8 °F - 75.2 °F 89% 29.91 in 10.0 mi West 6.9 mph - N/A   Scattered Clouds
6:51 AM 79.0 °F - 75.0 °F 88% 29.92 in 10.0 mi West 5.8 mph - N/A   Clear
7:28 AM 78.8 °F - 75.2 °F 89% 29.93 in 10.0 mi WSW 4.6 mph - N/A   Mostly Cloudy
7:51 AM 81.0 °F 87.3 °F 75.9 °F 85% 29.93 in 9.0 mi WSW 3.5 mph - N/A   Scattered Clouds
8:51 AM 82.9 °F 90.8 °F 75.9 °F 79% 29.94 in 10.0 mi SW 6.9 mph - N/A   Partly Cloudy
9:51 AM 82.9 °F 90.2 °F 75.0 °F 77% 29.95 in 10.0 mi WSW 10.4 mph - N/A   Clear
10:51 AM 86.0 °F 96.0 °F 75.9 °F 72% 29.96 in 10.0 mi SW 9.2 mph - N/A   Clear
11:51 AM 87.1 °F 98.8 °F 77.0 °F 72% 29.95 in 10.0 mi SW 10.4 mph 17.3 mph N/A   Clear
12:51 PM 87.1 °F 98.8 °F 77.0 °F 72% 29.93 in 10.0 mi SW 10.4 mph - N/A   Clear
1:51 PM 88.0 °F 100.2 °F 77.0 °F 70% 29.92 in 10.0 mi SW 8.1 mph - N/A   Clear
2:51 PM 86.0 °F 96.0 °F 75.9 °F 72% 29.91 in 10.0 mi SW 11.5 mph 18.4 mph N/A   Clear
3:51 PM 86.0 °F 96.9 °F 77.0 °F 74% 29.89 in 10.0 mi SW 9.2 mph - 0.00 in   Partly Cloudy
4:51 PM 84.0 °F 92.6 °F 75.9 °F 76% 29.87 in 10.0 mi SW 12.7 mph 18.4 mph N/A   Clear
5:51 PM 82.9 °F 90.8 °F 75.9 °F 79% 29.87 in 9.0 mi SW 12.7 mph - N/A   Clear
6:51 PM 82.9 °F 91.8 °F 77.0 °F 82% 29.87 in 10.0 mi SW 10.4 mph - N/A   Clear
7:51 PM 82.0 °F 90.2 °F 77.0 °F 85% 29.88 in 10.0 mi SW 8.1 mph - N/A   Clear
8:51 PM 82.0 °F 89.4 °F 75.9 °F 82% 29.90 in 10.0 mi SW 10.4 mph - N/A   Clear
9:51 PM 82.0 °F 90.2 °F 77.0 °F 85% 29.90 in 9.0 mi SW 10.4 mph - N/A   Clear
10:51 PM 82.0 °F 90.2 °F 77.0 °F 85% 29.91 in 10.0 mi SW 12.7 mph 18.4 mph N/A   Clear
11:51 PM 82.0 °F 90.2 °F 77.0 °F 85% 29.90 in 10.0 mi SW 12.7 mph 20.7 mph N/A   Clear